Location: Nairn
(57.5833°N, 3.8667°W)
Time: 01:24:45
(UTC+00:00)

Cosmos 1674 - Pass Details

Date: 07 August 2020
Orbit: 495 x 517 km, 82.5° (Epoch: 19 September)

Event Time Altitude Azimuth Distance (km) Brightness Sun altitude
Rises 01:31:15 0° 348° (NNW) 2,599 7.4 -14.7°
Reaches altitude 10° 01:33:23 10° 351° (N) 1,711 6.4 -14.6°
Maximum altitude 01:37:07 66° 75° (ENE) 548 2.9 -14.4°
Enters shadow 01:39:50 17° 156° (SSE) 1,303 4.3 -14.3°
